De Queen, AR

10:37 PM CDT on April 27, 2017 (GMT -0500)
Helms Sevier County

Weather History for KDEQ - February, 2013

Change the Weather History Date:

Tuesday, February 19, 2013

  Actual Average Record
Temperature  
Mean Temperature 45 °F 46 °F  
Max Temperature 60 °F 59 °F 81 °F (1986)
Min Temperature 30 °F 33 °F 12 °F (1978)
Degree Days  
Heating Degree Days 20 19  
Month to date heating degree days 343 400  
Since 1 July heating degree days 2107 2336  
Cooling Degree Days 0 0  
Month to date cooling degree days 0 0  
Year to date cooling degree days 4 1  
Moisture  
Dew Point 23 °F    
Average Humidity 47    
Maximum Humidity 75    
Minimum Humidity 19    
Precipitation  
Precipitation 0.00 in 0.12 in 1.63 in (1939)
Month to date precipitation 0.84 2.75  
Year to date precipitation 2.84 6.07  
Snow  
Snow 0.00 in - - ()
Month to date snowfall 0.0  
Since 1 July snowfall 4.5  
Snow Depth 0.00 in    
Sea Level Pressure  
Sea Level Pressure 30.22 in    
Wind  
Wind Speed 4 mph (NNE)    
Max Wind Speed 15 mph    
Max Gust Speed 21 mph    
Visibility 10 miles    
Events      
T = Trace of Precipitation, MM = Missing Value Source: NWS Daily Summary

Daily Weather History Graph

Daily Weather History Graph

Search for Another Location

Airport or City:

Trip Planner

Search our weather history database for the weather conditions in past years. The results will help you decide how hot, cold, wet, or windy it might be!

Date:

Astronomy

Feb. 19, 2013 Rise Set
Actual Time 6:57 AM CST 6:05 PM CST
Civil Twilight 6:32 AM CST 6:30 PM CST
Nautical Twilight 6:03 AM CST 7:00 PM CST
Astronomical Twilight 5:34 AM CST 7:29 PM CST
Moon 12:45 PM CST (2/19) 2:22 AM CST (2/19)
Length of Visible Light 11h 58m
Length of Day
11h 07m
Waxing Gibbous, 67% of the Moon is Illuminated
Feb 19
Waxing Gibbous
Feb 25
Full
Mar 4
Last Quarter
Mar 11
New
Mar 19
First Quarter

Hourly Weather History & Observations

Time (CST) Temp. Windchill Dew Point Humidity Pressure Visibility Wind Dir Wind Speed Gust Speed Precip Events Conditions
12:53 AM 46.9 °F - 28.9 °F 50% 30.09 in 10.0 mi Variable 3.5 mph - N/A   Clear
1:53 AM 44.1 °F 40.1 °F 27.0 °F 51% 30.11 in 10.0 mi Variable 6.9 mph - N/A   Clear
2:53 AM 43.0 °F 39.5 °F 23.0 °F 45% 30.13 in 10.0 mi North 5.8 mph - N/A   Clear
3:53 AM 39.9 °F 37.8 °F 23.0 °F 51% 30.15 in 10.0 mi North 3.5 mph - N/A   Clear
4:53 AM 37.9 °F - 21.9 °F 53% 30.17 in 10.0 mi Calm Calm - N/A   Clear
5:53 AM 35.1 °F 32.2 °F 23.0 °F 61% 30.19 in 10.0 mi North 3.5 mph - N/A   Clear
6:53 AM 33.1 °F - 21.9 °F 64% 30.22 in 10.0 mi Calm Calm - N/A   Clear
7:53 AM 33.1 °F - 27.0 °F 78% 30.25 in 10.0 mi Calm Calm - N/A   Clear
8:53 AM 44.1 °F 39.0 °F 21.9 °F 42% 30.28 in 10.0 mi NE 9.2 mph - N/A   Clear
9:53 AM 50.0 °F - 19.0 °F 29% 30.30 in 10.0 mi NNE 4.6 mph - N/A   Clear
10:53 AM 52.0 °F - 19.0 °F 27% 30.31 in 10.0 mi NE 8.1 mph - N/A   Clear
12:53 PM 57.0 °F - 21.0 °F 25% 30.28 in 10.0 mi Variable 5.8 mph - N/A   Clear
1:53 PM 60.1 °F - 19.0 °F 20% 30.25 in 10.0 mi WNW 4.6 mph - N/A   Clear
2:53 PM 59.0 °F - 17.1 °F 20% 30.22 in 10.0 mi Variable 6.9 mph 16.1 mph N/A   Clear
3:53 PM 59.0 °F - 18.0 °F 20% 30.22 in 10.0 mi North 5.8 mph - N/A   Clear
4:53 PM 57.0 °F - 19.0 °F 23% 30.22 in 10.0 mi ENE 5.8 mph - N/A   Clear
6:53 PM 46.9 °F - 21.0 °F 36% 30.23 in 10.0 mi ENE 4.6 mph - N/A   Clear
7:53 PM 42.1 °F 40.2 °F 25.0 °F 51% 30.24 in 10.0 mi East 3.5 mph - N/A   Clear
8:53 PM 39.9 °F - 24.1 °F 53% 30.24 in 10.0 mi Calm Calm - N/A   Clear
9:53 PM 36.0 °F 33.3 °F 28.0 °F 73% 30.25 in 10.0 mi East 3.5 mph - N/A   Clear
10:53 PM 36.0 °F - 27.0 °F 70% 30.24 in 10.0 mi Calm Calm - N/A   Clear
11:53 PM 37.0 °F - 30.0 °F 76% 30.23 in 10.0 mi Calm Calm - N/A   Clear